OBJECT H

Last updated on Oct. 9, 2018, 7:19 a.m. UTC

1 43187U 18014H   18281.82554581  .00000808  00000-0  76099-4 0  9996
2 43187  97.7162 188.7841 0012387 126.9143 233.3215 14.96511545 37315
UTC
Height (km)
Latitude
Longitude
Inclination
Orbital Period
UTC large
Height (km)
Speed (km/s)
/
Latitude / Longitude
Inclination (degrees)
Orbital Period (minutes)
Azimuth
Elevation
Range (km)
Doppler Factor
iOS Compass Heading
iOS Angle